Regional Weather Roundup
Issued by NWS

Home | Current Version | Previous Version | Graphics & Text | Print | Product List | Glossary On
Versions: 1 2 3 4 5 6 7 8 9 10 11 12 13 14 15 16 17 18 19 20 21 22 23 24 25 26 27 28 29 30 31 32 33 34 35 36 37 38 39 40 41 42 43 44 45 46 47 48 49 50
000
ASUS43 KLMK 192002
RWRKY
KENTUCKY REGIONAL WEATHER ROUNDUP
NATIONAL WEATHER SERVICE LOUISVILLE KY
400 PM EDT THU OCT 19 2017

NOTE "FAIR" INDICATES FEW OR NO CLOUDS BELOW 12,000 FEET
WITH NO SIGNIFICANT WEATHER AND/OR OBSTRUCTIONS TO VISIBILITY.

KYZ001>023-026-027-061>063-070>075-192100-
WESTERN AND SOUTH CENTRAL KENTUCKY

CITY           SKY/WX    TMP DP  RH WIND       PRES   REMARKS
PADUCAH        FAIR      78  49  35 SW10      30.19F
HENDERSON      FAIR      78  52  40 S8        30.20F
OWENSBORO      FAIR      76  52  43 S9        30.20F
HOPKINSVILLE   FAIR      74  48  39 S3        30.22F
BOWLING GREEN  FAIR      74  49  41 VRB5      30.23F
GLASGOW        NOT AVBL
$$

KYZ024-025-028>034-038-045-046-053-192100-
NORTH CENTRAL KENTUCKY

CITY           SKY/WX    TMP DP  RH WIND       PRES   REMARKS
LOUISVILLE/SDF FAIR      74  50  42 SW9       30.20F
LOUISVILLE/LOU FAIR      74  53  48 SW9       30.21F
FORT KNOX      FAIR      73  50  43 S7        30.20F
$$

KYZ035>037-039>044-047>052-055>060-089>105-192100-
NORTHEAST KENTUCKY

CITY           SKY/WX    TMP DP  RH WIND       PRES   REMARKS
LEXINGTON      FAIR      71  49  45 SW9       30.23F
COVINGTON      FAIR      72  52  49 SW10G17   30.20S
FRANKFORT      FAIR      73  49  42 W5        30.22S
$$

KYZ054-064>069-076>088-106>120-192100-
SOUTHEAST KENTUCKY

CITY           SKY/WX    TMP DP  RH WIND       PRES   REMARKS
JACKSON        FAIR      71  47  42 VRB5      30.26F
LONDON         FAIR      69  42  37 W8        30.26F
SOMERSET       NOT AVBL
MIDDLESBORO    FAIR      72  47  41 S3        30.27S
MONTICELLO     FAIR      71  48  43 VRB5      30.27F
$$





USA.gov is the U.S. government's official web portal to all federal, state and local government web resources and services.